St. George, AK

10:37 PM AKST on January 19, 2018 (GMT -0900)
Saint George

Weather History for PAPB - May, 2013

Change the Weather History Date:

Tuesday, May 14, 2013

  Actual Average Record
Temperature  
Mean Temperature 29 °F -  
Max Temperature 32 °F 39 °F 48 °F (2015)
Min Temperature 28 °F 32 °F 26 °F (2007)
Degree Days  
Heating Degree Days 36    
Moisture  
Dew Point 26 °F    
Average Humidity 87    
Maximum Humidity 93    
Minimum Humidity 79    
Precipitation  
Precipitation 0.00 in - - ()
Sea Level Pressure  
Sea Level Pressure 29.83 in    
Wind  
Wind Speed 15 mph (ENE)    
Max Wind Speed 17 mph    
Max Gust Speed 22 mph    
Visibility 10 miles    
Events Snow    
Averages and records for this station are not official NWS values.
T = Trace of Precipitation, MM = Missing Value Source: NWS Daily Summary

Daily Weather History Graph

Daily Weather History Graph

Search for Another Location

Airport or City:

Trip Planner

Search our weather history database for the weather conditions in past years. The results will help you decide how hot, cold, wet, or windy it might be!

Date:

Astronomy

May. 14, 2013 Rise Set
Actual Time 7:03 AM AKDT 11:27 PM AKDT
Civil Twilight 6:12 AM AKDT 12:19 AM AKDT
Nautical Twilight 4:51 AM AKDT 1:42 AM AKDT
Astronomical Twilight Sun does not rise Sun does not rise
Moon 10:59 AM AKDT (5/14) 2:41 AM AKDT (5/14)
Length of Visible Light 18h 06m
Length of Day
16h 24m
Waxing Crescent, 20% of the Moon is Illuminated
May 14
Waxing Crescent
May 17
First Quarter
May 24
Full
May 31
Last Quarter
Jun 8
New

Hourly Weather History & Observations

Time (AKDT) Temp. Windchill Dew Point Humidity Pressure Visibility Wind Dir Wind Speed Gust Speed Precip Events Conditions
12:53 AM 30.0 °F 18.3 °F 27.0 °F 88% 29.88 in 10.0 mi NE 17.3 mph 20.7 mph N/A   Overcast
1:53 AM 30.0 °F 19.1 °F 27.0 °F 88% 29.88 in 10.0 mi NE 15.0 mph - N/A   Overcast
2:53 AM 28.9 °F 16.9 °F 27.0 °F 92% 29.88 in 10.0 mi NE 17.3 mph 21.9 mph N/A   Overcast
3:53 AM 28.9 °F 18.6 °F 27.0 °F 92% 29.88 in 10.0 mi ENE 12.7 mph - N/A   Overcast
4:53 AM 28.9 °F 18.6 °F 26.1 °F 89% 29.87 in 10.0 mi NE 12.7 mph - N/A   Overcast
5:53 AM 28.9 °F 18.2 °F 26.1 °F 89% 29.86 in 10.0 mi ENE 13.8 mph - N/A   Overcast
6:10 AM 28.4 °F 18.0 °F 26.6 °F 93% 29.89 in 10.0 mi NE 12.7 mph - N/A   Overcast
6:53 AM 28.9 °F 17.7 °F 27.0 °F 92% 29.86 in 10.0 mi ENE 15.0 mph - N/A   Overcast
7:01 AM 28.4 °F 16.6 °F 26.6 °F 93% 29.89 in 10.0 mi ENE 16.1 mph - N/A   Overcast
7:53 AM 28.9 °F 19.2 °F 26.1 °F 89% 29.86 in 10.0 mi NE 11.5 mph - N/A   Overcast
8:53 AM 28.9 °F 18.2 °F 27.0 °F 92% 29.86 in 5.0 mi ENE 13.8 mph - 0.00 in Snow Light Snow
9:53 AM 28.9 °F 16.9 °F 27.0 °F 92% 29.85 in 10.0 mi ENE 17.3 mph 21.9 mph 0.00 in   Overcast
10:53 AM 28.9 °F 17.3 °F 26.1 °F 89% 29.85 in 10.0 mi NE 16.1 mph - N/A   Overcast
11:53 AM 30.0 °F 20.0 °F 26.1 °F 85% 29.84 in 10.0 mi ENE 12.7 mph - N/A   Overcast
12:53 PM 30.9 °F 20.2 °F 27.0 °F 85% 29.84 in 9.0 mi East 15.0 mph - 0.00 in   Overcast
1:53 PM 30.9 °F 21.2 °F 27.0 °F 85% 29.83 in 10.0 mi East 12.7 mph 21.9 mph N/A   Overcast
2:53 PM 30.9 °F 20.7 °F 26.1 °F 82% 29.82 in 10.0 mi ENE 13.8 mph - N/A   Overcast
3:00 PM 30.2 °F 19.3 °F 26.6 °F 86% 29.85 in 10.0 mi ENE 15.0 mph - N/A   Overcast
3:53 PM 30.9 °F 19.4 °F 26.1 °F 82% 29.81 in 10.0 mi NE 17.3 mph - N/A   Overcast
4:53 PM 30.9 °F 20.2 °F 26.1 °F 82% 29.80 in 10.0 mi ENE 15.0 mph - N/A   Overcast
5:53 PM 30.0 °F 19.5 °F 25.0 °F 82% 29.79 in 10.0 mi ENE 13.8 mph - N/A   Overcast
6:53 PM 30.9 °F 20.7 °F 26.1 °F 82% 29.78 in 10.0 mi NE 13.8 mph - N/A   Overcast
7:53 PM 30.0 °F 21.1 °F 24.1 °F 79% 29.78 in 10.0 mi NE 10.4 mph - N/A   Overcast
8:53 PM 30.0 °F 20.5 °F 25.0 °F 82% 29.77 in 10.0 mi ENE 11.5 mph - N/A   Overcast
9:53 PM 28.9 °F 19.8 °F 24.1 °F 82% 29.76 in 10.0 mi NE 10.4 mph - N/A   Overcast
10:53 PM 28.9 °F 18.2 °F 25.0 °F 85% 29.75 in 10.0 mi NE 13.8 mph - N/A   Overcast
11:53 PM 28.9 °F 19.8 °F 24.1 °F 82% 29.76 in 10.0 mi NE 10.4 mph - N/A   Overcast